Showing default

FLOCK 4H 5, 66708

Orbit data source: Space-Track

FLOCK 4H 5, 66708 is a payload satellite owned by Planet (TW) in SSO that was launched on Fri, 28 Nov 2025 UTC via an FALCON 9 launch vehicle from the Air Force Western Test Range (AFWTR). Payload-class satellites include a variety of spacecraft equipped with specific instruments for various scientific and technological missions. These include communications satellites like Starlink; space stations such as the ISS; scientific satellites like the Hubble; Earth observation satellites from companies like Planet Labs, Umbra, and HawkEye 360; GPS; miniature CubeSats for education and research; and military/defense satellites.

Loading next visibility...
Identifier
66708, 2025-276AU
Orbit
SSO
Country
Flag of TWTW / TWN
Related business
Manufacturer
Planet
Mission
Operational Commercial Imaging
Bus & Motor
CUBESAT 3U, Unknown motor
Mass
5.7 kg wet, 5.7 kg dry
Launch date (UTC)
2025-11-28 (9 months ago)
Launch vehicle
FALCON 9
Launch site
Air Force Western Test Range (AFWTR)
Object type
Payload
Rocket body
Debris
Shape & HBR
Box + 2 Pan, 1.0 m
Radar Cross Section
0.072 m², Medium (>0.1 m² and < 1m²)

Expand to show TLE details & history
Last TLE update: 13 hours ago

TLE from 13 hours ago
0 FLOCK 4H 5
1 66708U 25276AU  26238.17394823  .00005157  00000-0  23351-3 0  9992
2 66708  97.4137 310.7922 0002551  94.2278 265.9250 15.21310916 41079
Epoch: 2026-08-26T04:10Z
TLE epoch observation values (Epoch: 2026-08-26T04:10:29.127Z)
Latitude
0.00006°
Longitude
-86.25991°
Altitude
505.102 km
Speed
7.612 km/s
True Right ascension
20h 43m 10s
True Declination
0° 00' 00"
Sunlit
Object was in full shadow at epoch
Visualization orbit readout
Latitude
Unknown
Longitude
Unknown
Altitude
Unknown
Speed
Unknown
Apparent Right ascension
Unknown
Apparent Declination
Unknown
Sunlit
N/A
Visualization observer readout
Local Sidereal Time
08:23:16
Azimuth
Unknown
Elevation
Unknown
Doppler factor
Unknown
Orbital elements
Apogee altitude
500.604 km
Perigee altitude
497.096 km
Semi-major axis
6,876.987 km
Eccentricity
0.00026
Inclination
97.4137°
RAAN
310.7922°
Arg. of periapsis
94.2278°
True anomaly
265.89584°
Mean anomaly
265.925°
Eccentric anomaly
265.91042°
Mean motion
3.8058 °/min
Orbital period
94.59 mins
BSTAR
0.00023351
Loading maneuver chart data...
Computing Atmospheric mass density...
Loading historical data...
Loading historical data...
Loading historical data...
Loading historical data...
Loading historical data...
Loading historical data...
Loading historical data...

Documentation

Showing up to 5 results
|